Location: Kalwaria Zebrzydowska
(49.8686°N, 19.6647°E)
Time: 06:29:57
(UTC+02:00)

ISS - Pass Details

Date: 27 January 2019
Orbit: 411 x 421 km, 51.6° (Epoch: 19 October)

Event Time Altitude Azimuth Distance (km) Brightness Sun altitude
Rises 18:21:03 0° 258° (WSW) 2,413 1.8 -18.2°
Reaches altitude 10° 18:23:10 10° 259° (W) 1,548 0.4 -18.6°
Maximum altitude 18:26:40 79° 347° (NNW) 453 -3.7 -19.1°
Enters shadow 18:27:03 66° 49° (NE) 482 -3.8 -19.2°
